Regional Weather Roundup
Issued by NWS Grand Forks, ND

Home | Current Version | Previous Version | Graphics & Text | Print | Product List | Glossary On
Versions: 1 2 3 4 5 6 7 8 9 10 11 12 13 14 15 16 17 18 19 20 21 22 23 24 25 26 27 28 29 30 31 32 33 34 35 36 37 38 39 40 41 42 43 44 45 46 47 48 49 50
000
ASUS43 KFGF 310610
RWRFGF
PRAIRIE TO PINES  WEATHER ROUNDUP
NATIONAL WEATHER SERVICE EASTERN NORTH DAKOTA/GRAND FORKS ND
100 AM CDT FRI OCT 31 2014

 **SATELLITE DATA USED TO AUGMENT SKY COVER AT AUTOMATED STATIONS**
 *****  WEATHER ACROSS EASTERN NORTH DAKOTA  *****

CITY           SKY/WX    TMP DP  RH WIND       PRES   REMARKS
GRAND FORKS    CLEAR     19  14  81 N7        30.59R WCI  10
6HR MIN TEMP:  19; 6HR MAX TEMP:  34;

GRAND FRKS AFB CLEAR     20  15  82 N6        30.60R WCI  12
GRAND FRKS NWS   N/A     21 N/A N/A N5          N/A  WCI  15
DEVILS LAKE    CLEAR     21  10  63 CALM      30.57R
6HR MIN TEMP:  19; 6HR MAX TEMP:  30;

FARGO          CLEAR     23  18  81 NW12      30.57R WCI  12
WAHPETON ARPT  CLEAR     27  19  74 N7        30.56R WCI  19
$$

 ***** WEATHER ACROSS CENTRAL AND WESTERN NORTH DAKOTA  *****

CITY           SKY/WX    TMP DP  RH WIND       PRES   REMARKS
BISMARCK       CLEAR     20  17  88 CALM      30.58F
6HR MIN TEMP:  20; 6HR MAX TEMP:  35;

MINOT          CLEAR     18  14  84 CALM      30.54F
6HR MIN TEMP:  18; 6HR MAX TEMP:  28;

JAMESTOWN      CLEAR     18  14  84 NE6       30.57  WCI  10
6HR MIN TEMP:  16; 6HR MAX TEMP:  30;

MINOT AFB      CLEAR     14  13  95 S3        30.54F
GARRISON         N/A     18  16  92 CALM      30.55S
WILLISTON      CLOUDY    29  23  78 SE10      30.49F WCI  20
6HR MIN TEMP:  29; 6HR MAX TEMP:  36;

DICKINSON      CLOUDY    29  25  85 SE16      30.47F WCI  17
6HR MIN TEMP:  29; 6HR MAX TEMP:  33;

HETTINGER      CLOUDY    30  26  85 SE10      30.51S WCI  21
6HR MIN TEMP:  30; 6HR MAX TEMP:  35;

$$

 *****  OTHER AIRPORT OBSERVATIONS IN OUR AREA  *****

CITY           SKY/WX    TMP DP  RH WIND       PRES   REMARKS
WALHALLA       FAIR      19  16  86 NW3       30.61S
GRAFTON AIRPOR FAIR      19  14  79 N7        30.61R WCI  10
VALLEY CITY AR FAIR      18  18 100 NW6       30.57S WCI   9
CANDO          FAIR      16  14  93 N3        30.59S
CAVALIER APRT  FAIR      19  14  79 N5        30.61S WCI  13
GWINNER        CLEAR     27  18  69 N10       30.58R WCI  17
ROLLA          FAIR      14  10  85 CALM      30.57F
 ***** THE ABOVE OBSERVATIONS ARE NON NWS ARE NOT QUALITY
       CONTROLLED AND MAY MIS-REPORT RAIN FOR SNOW...
$$

  *****  WEATHER ACROSS NORTHERN MINNESOTA  *****

CITY           SKY/WX    TMP DP  RH WIND       PRES   REMARKS
FLAG ISLAND    CLEAR     28  19  69 NE14      30.54R WCI  17
WARROAD        PTCLDY    25  19  80 NW6       30.55R WCI  18
ROSEAU         CLEAR     25  18  74 NW7       30.56R WCI  17
HALLOCK        CLEAR     19  16  86 NW6       30.60R WCI  11
THF RVR FALLS  CLEAR     25  18  74 N9        30.56R WCI  15
6HR MIN TEMP:  25; 6HR MAX TEMP:  30;

BAUDETTE       PTCLDY    27  16  63 N8        30.52R WCI  19
6HR MIN TEMP:  27; 6HR MAX TEMP:  32;

WASKISH        CLOUDY    28  18  64 CALM      30.51R
CROOKSTON      CLEAR     21  18  86 N7        30.59R WCI  13
STEPHEN NDAWN    N/A     19  16  86 N6          N/A  WCI  11
GREENBUSH NDAW   N/A     19  18  93 NW6         N/A  WCI  11
$$
  *****  WEATHER ACROSS CENTRAL AND WEST MINNESOTA  *****

CITY           SKY/WX    TMP DP  RH WIND       PRES   REMARKS
FOSSTON        CLEAR     19  16  86 N8        30.54R WCI   9
BEMIDJI        CLOUDY    27  17  64 N9        30.49R WCI  18
PARK RAPIDS    CLEAR     25  17  72 N8        30.47R WCI  16
6HR MIN TEMP:  25; 6HR MAX TEMP:  33;

ELBOW LAKE     FAIR      26  20  77 N10       30.51R WCI  17
6HR MIN TEMP:  26; 6HR MAX TEMP:  34;

WADENA         CLEAR     25  18  74 NW7       30.48R WCI  17
DETROIT LAKES  CLEAR     27  23  86 N10G16    30.52R WCI  17
MOORHEAD       CLEAR     23  21  93 N9        30.57R WCI  13
FERGUS FALLS   CLEAR     27  18  69 N9        30.54R WCI  17
MORRIS MN      NOT AVBL
STAPLES        PTCLDY    23  18  80 NW7       30.47R WCI  15
$$
  *****  WEATHER ELSEWHERE ACROSS MINNESOTA  *****

CITY           SKY/WX    TMP DP  RH WIND       PRES   REMARKS
DULUTH         MOCLDY    28  16  60 N15G26    30.34R WCI  16
6HR MIN TEMP:  28; 6HR MAX TEMP:  34; 6HR PCP: TRACE;

INTRNTL FALLS  CLOUDY    28  16  60 N16G23    30.48R WCI  16
6HR MIN TEMP:  27; 6HR MAX TEMP:  30; 6HR PCP: TRACE;

ELY            CLOUDY    25  18  74 N12G21    30.38R WCI  14
CLOQUET        PTCLDY    28  16  59 N21G32    30.36R WCI  15
WHEATON        CLEAR     23  19  86 NW8       30.57R WCI  14
BRAINERD       PTCLDY    28  16  60 N15       30.45R WCI  16
6HR MIN TEMP:  28; 6HR MAX TEMP:  35;

HIBBING        CLOUDY    28  17  63 N13G24    30.41R WCI  17
6HR MIN TEMP:  28; 6HR MAX TEMP:  31;

ALEXANDRIA     CLEAR     29  17  61 N16       30.48R WCI  17
6HR MIN TEMP:  29; 6HR MAX TEMP:  35;

SAINT CLOUD    FAIR      31  14  49 N14G20    30.43R WCI  21
6HR MIN TEMP:  30; 6HR MAX TEMP:  42;

MINNEAPOLIS    CLEAR     31  14  49 N16G25    30.39R WCI  20
6HR MIN TEMP:  31; 6HR MAX TEMP:  43;

$$

  *****  WEATHER ACROSS SOUTH DAKOTA  *****

CITY           SKY/WX    TMP DP  RH WIND       PRES   REMARKS
SIOUX FALLS    CLEAR     27  20  75 N9        30.49R WCI  18
6HR MIN TEMP:  27; 6HR MAX TEMP:  40;

BROOKINGS      NOT AVBL
WATERTOWN      CLEAR     23  19  85 N10       30.50R WCI  12
6HR MIN TEMP:  23; 6HR MAX TEMP:  33;

HURON          CLEAR     19  16  88 NW8       30.56S WCI   9
6HR MIN TEMP:  18; 6HR MAX TEMP:  38;

SISSETON         N/A     23  20  88 N9        30.55R WCI  13
ABERDEEN       CLEAR     21  17  84 N6        30.57R WCI  13
6HR MIN TEMP:  21; 6HR MAX TEMP:  35;

MITCHELL       CLEAR     26  20  77 NW8       30.56R WCI  18
PIERRE         PTCLDY    26  20  77 NE6       30.57R WCI  19
6HR MIN TEMP:  26; 6HR MAX TEMP:  38;

MOBRIDGE       CLEAR     22  18  85 NE7       30.54F WCI  13
RAPID CITY     CLOUDY    31  28  89 SE9       30.49R WCI  23
6HR MIN TEMP:  28; 6HR MAX TEMP:  38;

$$

  *****  SOME WEATHER IN NEARBY STATES *****

CITY           SKY/WX    TMP DP  RH WIND       PRES   REMARKS
GLASGOW MT     CLOUDY    36  30  79 SE22G30   30.33F
6HR MIN TEMP:  35; 6HR MAX TEMP:  36;

GREAT FALLS MT CLOUDY    48  32  53 E3        30.02F
6HR MIN TEMP:  44; 6HR MAX TEMP:  55;

CHEYENNE WY    CLEAR     35  25  66 CALM      30.41F
6HR MIN TEMP:  33; 6HR MAX TEMP:  50;

SCOTTSBLUFF NE CLEAR     35  30  82 E8        30.43S
6HR MIN TEMP:  34; 6HR MAX TEMP:  51;

OMAHA NE       CLOUDY    40  29  64 N25G33    30.41R
6HR MIN TEMP:  40; 6HR MAX TEMP:  53;

DES MOINES IA  CLOUDY    44  31  60 N22G37    30.29R
6HR MIN TEMP:  44; 6HR MAX TEMP:  56; 6HR PCP: TRACE;

DAVENPORT IA   CLOUDY    47  37  68 NW15      30.12S
6HR MIN TEMP:  46; 6HR MAX TEMP:  48;

CHICAGO IL     CLOUDY    47  36  65 W9        30.02F
6HR MIN TEMP:  45; 6HR MAX TEMP:  48;

EAU CLAIRE WI  CLEAR     31  18  58 NW17G26   30.27R WCI  19
6HR MIN TEMP:  31; 6HR MAX TEMP:  43; 6HR PCP: TRACE;

LA CROSSE WI   CLOUDY    39  21  48 N21G28    30.23R
6HR MIN TEMP:  39; 6HR MAX TEMP:  49;

$$

  *****  SOME NATIONAL WEATHER *****

CITY           SKY/WX    TMP DP  RH WIND       PRES   REMARKS
LA GUARDIA NY  PTCLDY    48  37  65 N8        30.02S
6HR MIN TEMP:  48; 6HR MAX TEMP:  53;

RALEIGH NC     CLEAR     47  42  83 NE7       29.99F
6HR MIN TEMP:  46; 6HR MAX TEMP:  54;

ATLANTA GA     PTCLDY    48  41  76 NW7       29.97S
6HR MIN TEMP:  48; 6HR MAX TEMP:  57;

NEW ORLEANS LA CLEAR     56  51  84 NW6       30.05S
6HR MIN TEMP:  54; 6HR MAX TEMP:  67;

OKLAHOMA CITY  CLEAR     60  35  39 N15       30.24R
6HR MIN TEMP:  56; 6HR MAX TEMP:  68;

ALBUQUERQUE NM CLEAR     59  23  25 E17       30.33R
6HR MIN TEMP:  59; 6HR MAX TEMP:  70;

SALT LAKE CITY MOCLDY    56  31  38 SE12      30.09F
6HR MIN TEMP:  48; 6HR MAX TEMP:  61;

LOS ANGELES CA PTCLDY    66  61  84 W8        29.97S



USA.gov is the U.S. government's official web portal to all federal, state and local government web resources and services.